Date,TemperatureHighF,TemperatureAvgF,TemperatureLowF,DewpointHighF,DewpointAvgF,DewpointLowF,HumidityHigh,HumidityAvg,HumidityLow,PressureMaxIn,PressureMinIn,WindSpeedMaxMPH,WindSpeedAvgMPH,GustSpeedMaxMPH,PrecipitationSumIn
2013-5-1,82.0,71.3,56.0,59.0,54.7,48.0,83,57,34,30.05,29.91,9,5,16,0.00
2013-5-2,68.0,53.3,46.0,57.0,47.1,42.0,86,80,66,30.20,30.04,14,8,19,0.00
2013-5-6,74.0,64.9,52.0,56.0,53.9,51.0,99,68,46,30.01,29.94,12,7,20,0.00
2013-5-7,79.0,67.0,54.0,55.0,49.8,41.0,86,57,28,30.03,29.96,8,4,11,0.00
2013-5-8,80.0,64.3,52.0,61.0,54.6,47.0,96,73,40,30.02,29.94,13,4,20,0.00
2013-5-9,74.0,64.4,59.0,63.0,59.7,57.0,95,85,63,29.95,29.82,13,5,19,0.00
2013-5-10,61.0,57.2,50.0,60.0,53.0,-99.9,97,91,78,30.00,29.84,11,6,17,0.00
2013-5-11,65.0,54.2,43.0,55.0,40.5,-99.9,100,67,30,30.17,29.99,18,8,26,0.00
2013-5-12,62.0,50.0,36.0,41.0,31.4,22.0,83,52,25,30.23,30.12,14,6,21,0.00
2013-5-13,75.0,57.7,36.0,48.0,40.5,34.0,94,57,26,30.18,29.97,9,4,14,0.00
2013-5-14,90.0,74.2,56.0,56.0,50.8,46.0,79,48,22,29.97,29.81,18,10,28,0.00
2013-5-15,88.0,75.8,65.0,67.0,58.0,48.0,82,55,40,29.92,29.82,16,8,22,0.00
2013-5-16,80.0,65.3,62.0,68.0,42.5,-99.9,97,78,52,29.93,29.85,10,4,17,0.00
2013-5-17,78.0,67.1,58.0,67.0,56.4,-99.9,96,80,62,29.95,29.88,8,3,12,0.00
2013-5-18,83.0,70.6,59.0,70.0,64.7,59.0,100,83,57,29.98,29.84,10,5,14,0.00
2013-5-19,89.0,78.5,68.0,73.0,66.8,59.0,96,70,40,29.90,29.65,12,7,24,0.00
2013-5-20,80.0,68.4,61.0,70.0,63.0,59.0,99,84,55,29.88,29.68,20,8,30,0.00
2013-5-21,75.0,67.4,61.0,65.0,61.9,60.0,98,83,63,29.78,29.68,13,7,21,0.00
2013-5-22,69.0,63.6,58.0,62.0,56.7,52.0,98,80,55,29.88,29.68,13,6,21,0.00
2013-5-23,65.0,59.6,53.0,58.0,53.2,49.0,96,80,67,30.20,29.88,14,8,21,0.00
2013-5-24,71.0,56.0,47.0,52.0,45.5,38.0,98,73,30,30.38,30.19,9,5,15,0.00
2013-5-25,71.0,57.5,48.0,60.0,51.3,42.0,98,80,65,30.25,30.09,14,6,21,0.00
2013-5-26,85.0,69.1,56.0,70.0,61.7,55.0,98,79,52,30.14,29.96,18,6,25,0.00
2013-5-27,73.0,67.1,63.0,68.0,64.8,61.0,99,92,83,29.98,29.82,12,6,21,0.00
2013-5-30,83.0,70.9,63.0,68.0,63.7,62.0,99,81,52,29.83,29.73,22,10,31,0.00
2013-5-31,82.0,66.0,62.0,74.0,64.5,61.0,100,96,74,29.85,29.66,22,7,36,0.00